Orbital Elements at Epoch 2459000.5 (2020-May-31.0) TDB
Reference: JPL 23 (heliocentric ecliptic J2000)
Element | Value | Uncertainty (1-sigma) | Units |
e | .2248975746927142 | 4.6199e-08 | |
a | 2.379861384205506 | 8.238e-09 | au |
q | 1.844636330792842 | 1.0891e-07 | au |
i | 3.052215524990829 | 4.2085e-06 | deg |
node | 106.3505391332392 | 9.9165e-05 | deg |
peri | 263.7161534461907 | 9.963e-05 | deg |
M | 8.173267103446598 | 1.0463e-05 | deg |
tp | 2458970.054780374611 (2020-Apr-30.55478037) | 3.8894e-05 | TDB |
period | 1340.991176040028 3.67 | 6.9629e-06 1.906e-08 | d yr |
n | .2684581423295318 | 1.3939e-09 | deg/d |
Q | 2.91508643761817 | 1.0091e-08 | au |
|
| | Orbit Determination Parameters
Additional Information
|